User: anonymous   Login
Location: Unspecified
(0.0000°N, 0.0000°E)
Time: 18:16:50
(UTC+00:00)
Language:

APRIZESAT 3 - Orbit

View from above orbital plane
View from above orbital plane
View from above satellite
View from above satellite

Ground track
Ground track

The orbit data is extracted from the following two-line orbital elements,

1 35686U 09041F   21025.46134388  .00000084  00000-0  15527-4 0  9995
2 35686  98.1547  94.8943 0073700  45.4522 315.2679 14.87461317623130
Epoch (UTC): 25 January 2021 11:04:20
Eccentricity: 0.0073700
inclination: 98.1547°
perigee height: 554 km
apogee height: 657 km
right ascension of ascending node: 94.8943°
argument of perigee: 45.4522°
revolutions per day: 14.87461317
mean anomaly at epoch: 315.2679°
orbit number at epoch: 62313

The dashed part of the orbit path shows where the satellite is in the earth's shadow,  

DLR